Location: Memphis
(29.8667°N, 31.2500°E)
Time: 08:26:16
(UTC+00:00)

Delta 7925 Rocket - Pass Details

Date: 03 March 2021
Orbit: 645 x 1648 km, 26.3° (Epoch: 15 April)

Event Time Altitude Azimuth Distance (km) Brightness Sun altitude
Rises 17:50:38 0° 266° (W) 2,992 7.9 -25.7°
Reaches altitude 10° 17:53:04 10° 262° (W) 2,041 6.6 -26.2°
Enters shadow 17:56:52 48° 218° (SW) 840 3.8 -27.0°
